Location: Bern�tre
(50.1974°N, 2.0915°E)
Time: 00:41:54
(UTC+00:00)

USA 234 - Visible Passes

Search period start: 24 January 2021 00:00
Search period end: 03 February 2021 00:00
Orbit: 1098 x 1110 km, 123.0° (Epoch: 22 January)

Date Brightness Start Highest point End Pass type
(mag) Time Alt. Az. Time Alt. Az. Time Alt. Az.
24 Jan 3.7 17:29:30 11° ENE 17:35:32 50° N 17:41:48 10° WNW visible
24 Jan 3.3 19:16:50 52° ENE 19:18:03 60° NNE 19:24:29 10° WNW visible
24 Jan 4.6 21:04:12 33° WNW 21:04:12 33° WNW 21:07:35 10° WNW visible
25 Jan 3.6 18:32:17 28° ENE 18:35:33 51° N 18:41:50 10° WNW visible
25 Jan 3.6 20:19:37 59° NW 20:19:37 59° NW 20:24:48 10° WNW visible
25 Jan 5.7 22:06:58 14° WNW 22:06:58 14° WNW 22:07:46 10° WNW visible
26 Jan 3.7 17:47:42 14° ENE 17:53:05 50° N 17:59:22 10° WNW visible
26 Jan 3.3 19:35:03 58° NE 19:35:36 60° NNE 19:42:02 10° WNW visible
26 Jan 4.9 21:22:23 27° WNW 21:22:23 27° WNW 21:25:09 10° WNW visible
27 Jan 3.7 17:04:15 10° ENE 17:10:37 55° NNW 17:16:59 10° W visible
27 Jan 3.6 18:50:28 33° ENE 18:53:06 51° N 18:59:24 10° WNW visible
27 Jan 4.0 20:37:48 48° NW 20:37:48 48° NW 20:42:22 10° WNW visible
27 Jan 5.8 22:25:08 11° WNW 22:25:08 11° WNW 22:25:20 10° WNW visible
28 Jan 3.7 18:05:52 18° ENE 18:10:39 50° N 18:16:55 10° WNW visible
28 Jan 3.4 19:53:13 61° NNE 19:53:13 61° NNE 19:59:36 10° WNW visible
28 Jan 5.2 21:40:33 22° WNW 21:40:33 22° WNW 21:42:42 10° WNW visible
29 Jan 3.7 17:21:49 10° ENE 17:28:10 55° NNW 17:34:32 10° W visible
29 Jan 3.6 19:08:37 39° NE 19:10:39 51° N 19:16:57 10° WNW visible
29 Jan 4.3 20:55:57 40° NW 20:55:57 40° NW 20:59:55 10° WNW visible
30 Jan 3.7 18:24:01 21° ENE 18:28:12 50° N 18:34:28 10° WNW visible
30 Jan 3.5 20:11:21 58° N 20:11:21 58° N 20:17:09 10° WNW visible
30 Jan 5.4 21:58:41 19° WNW 21:58:41 19° WNW 22:00:16 10° WNW visible
31 Jan 3.7 17:39:24 10° ENE 17:45:43 55° NNW 17:52:05 10° W visible
31 Jan 3.6 19:26:45 44° NE 19:28:12 51° N 19:34:30 10° WNW visible
31 Jan 4.6 21:14:05 34° NW 21:14:05 34° NW 21:17:29 10° WNW visible
01 Feb 3.7 18:42:08 25° ENE 18:45:45 50° N 18:52:01 10° WNW visible
01 Feb 3.7 20:29:28 53° NNW 20:29:28 53° NNW 20:34:42 10° WNW visible
01 Feb 5.6 22:16:49 15° WNW 22:16:49 15° WNW 22:17:49 10° WNW visible
02 Feb 3.7 17:57:31 13° ENE 18:03:16 55° NNW 18:09:38 10° W visible
02 Feb 3.6 19:44:51 48° NNE 19:45:45 51° N 19:52:03 10° WNW visible
02 Feb 4.9 21:32:12 28° NW 21:32:12 28° NW 21:35:02 10° WNW visible
